[[{"header":{"parameterUnit":"m.s-1","parameterCategory":1,"la1":30.2991,"la2":30.254,"lo1":-89.0895,"lo2":-89.0444,"dy":0.0017,"dx":0.0017,"nx":28,"ny":28,"refTime":"2025-08-08T21:00:00:Z","depth":0,"parameterNumber":2,"parameterNumberName":"U-component_of_WINDS"},"data":[0,0,0,0,0,0,0,0,0,0,0,0,0,0,0,0,0,0,0,0,0,0,0,0,0,0,0,0,0,0,0,0,0,0,0,0,0,0,0,0,0,0,0,0,0,0,0,0,0,0,0,0,0,0,0,0,0,0,-3.1002,-3.1002,0,-3.0991,-3.0991,-3.099,-3.089,-3.0887,-3.0885,-3.0882,-3.0876,-3.0878,-3.0881,0,0,0,0,0,0,0,0,0,0,0,0,0,-3.0944,-3.0945,-3.1002,-3.1002,-3.1002,-3.0991,-3.0991,-3.099,-3.089,-3.0887,-3.0884,-3.0881,-3.0876,-3.0878,-3.0881,0,0,0,0,0,0,0,0,0,0,0,0,0,-3.0955,-3.0946,-3.1002,-3.095,-3.0945,-3.0991,-3.0991,-3.099,-3.0891,-3.0887,-3.0883,-3.088,-3.0875,-3.0878,-3.0881,-3.0977,0,0,-3.0891,-3.0893,0,0,0,0,0,0,0,0,-3.0954,-3.0957,-3.0958,-3.0954,-3.0949,-3.0938,-3.0968,-3.0986,-3.0892,-3.0912,-3.0882,-3.0878,-3.09,-3.0901,-3.0907,-3.0977,-3.0977,-3.0892,-3.0894,-3.0895,-3.0896,0,0,0,0,0,0,0,-3.0953,-3.0957,-3.0998,-3.0958,-3.0952,-3.093,-3.0927,-3.0971,-3.0928,-3.091,-3.0902,-3.0902,-3.0897,-3.0905,-3.0907,-3.0976,-3.0891,-3.0894,-3.0896,-3.0898,-3.1128,-3.1132,0,0,0,0,0,0,-3.0959,-3.0957,-3.0998,-3.0997,-3.0942,-3.0934,-3.0931,-3.0945,-3.0927,-3.092,-3.0905,-3.0897,-3.0901,-3.0903,-3.0906,-3.1019,-3.0895,-3.0898,-3.09,-3.1124,-3.1129,-3.1133,0,0,0,0,0,0,-3.0958,-3.0964,-3.0998,-3.0975,-3.0978,-3.0939,-3.0956,-3.0947,-3.0954,-3.0923,-3.0916,-3.0921,-3.0898,-3.0901,-3.0961,-3.1018,-3.0899,-3.0902,-3.1119,-3.1125,-3.1131,-3.1245,0,0,0,0,0,0,-3.0957,-3.0964,-3.0998,-3.0976,-3.0979,-3.1051,-3.0959,-3.0949,-3.0959,-3.0949,-3.0936,-3.093,-3.0895,-3.0956,-3.0964,-3.102,-3.0905,-3.1113,-3.1122,-3.1129,-3.1236,-3.1255,-3.127,0,0,0,0,0,-3.0955,-3.1031,-3.1,-3.1006,-3.1021,-3.1055,-3.1057,-3.1013,-3.0964,-3.1,-3.0981,-3.093,-3.101,-3.0963,-3.0971,-3.1029,-3.111,-3.1119,-3.1128,-3.1229,-3.1251,-3.127,0,0,0,0,0,0,-3.1062,-3.1027,-3.0993,-3.1064,-3.1063,-3.1038,-3.1081,-3.1038,-3.1053,-3.1042,-3.099,-3.0988,-3.1056,-3.1048,-3.0997,-3.1122,-3.1051,-3.1063,-3.1125,-3.1146,-3.1163,-3.1164,-3.0908,0,0,0,0,0,-3.1093,-3.1122,-3.1091,-3.1157,-3.1158,-3.112,-3.1133,-3.11,-3.1098,-3.1097,-3.1082,-3.1083,-3.1109,-3.1127,-3.1148,-3.1235,-3.1232,-3.1279,-3.1296,-3.131,-3.1321,-3.1369,-3.139,-3.1164,-3.1164,-3.1163,0,0,-3.1159,-3.1144,-3.1165,-3.1178,-3.1173,-3.1206,-3.112,-3.1158,-3.1183,-3.1103,-3.1158,-3.1148,-3.1146,-3.122,-3.1252,-3.1216,-3.1383,-3.1322,-3.1333,-3.1336,-3.1381,-3.1402,-3.1421,-3.117,-3.1169,-3.1168,0,0,-3.1296,-3.1287,-3.1341,-3.1339,-3.1333,-3.1307,-3.1321,-3.1302,-3.1292,-3.1346,-3.1288,-3.1318,-3.1362,-3.1364,-3.1371,-3.1513,-3.1468,-3.1521,-3.1611,-3.1658,-3.1676,-3.1692,-3.1745,-3.1764,-3.1532,-3.1532,-3.1532,0,-3.138,-3.1424,-3.1375,-3.1418,-3.1426,-3.1355,-3.1412,-3.1412,-3.1415,-3.1424,-3.1382,-3.1438,-3.1432,-3.1507,-3.1542,-3.1549,-3.1565,-3.1523,-3.1677,-3.1692,-3.1706,-3.1756,-3.1776,-3.1539,-3.1538,-3.1537,-3.1537,0,-3.1529,-3.1561,-3.1607,-3.161,-3.1623,-3.1673,-3.1634,-3.1654,-3.1621,-3.1601,-3.1659,-3.1649,-3.1669,-3.1684,-3.1652,-3.1756,-3.1734,-3.1686,-3.1614,-3.1735,-3.1782,-3.18,-3.1548,-3.1546,-3.1544,-3.1542,0,0,-3.1731,-3.1708,-3.1726,-3.1727,-3.1716,-3.1742,-3.179,-3.1808,-3.1828,-3.1832,-3.1873,-3.1914,-3.187,-3.1878,-3.1846,-3.1888,-3.2004,-3.1835,-3.1834,-3.1869,-3.2121,-3.2158,-3.2181,-3.1974,-3.1977,-3.198,-3.2122,0,-3.1865,-3.1943,-3.1902,-3.1987,-3.2018,-3.1952,-3.1994,-3.1994,-3.1977,-3.2004,-3.1986,-3.2016,-3.1955,-3.196,-3.1998,-3.1981,-3.2054,-3.197,-3.2014,-3.2016,-3.2018,-3.2204,-3.2243,-3.2377,-3.2139,-3.2142,-3.2144,0,-3.203,-3.2042,-3.213,-3.2115,-3.2127,-3.2165,-3.218,-3.2205,-3.2205,-3.219,-3.2201,-3.216,-3.2209,-3.2137,-3.2206,-3.215,-3.2166,-3.2161,-3.2165,-3.2168,-3.2089,-3.2215,-3.2419,-3.244,-3.2172,-3.217,-3.2168,0,-3.2173,-3.221,-3.2268,-3.2271,-3.2255,-3.2284,-3.228,-3.2275,-3.229,-3.2304,-3.2313,-3.2333,-3.2345,-3.2362,-3.2329,-3.2279,-3.2404,-3.2329,-3.2396,-3.2397,-3.2426,-3.2425,-3.2637,-3.2434,-3.2433,-3.2433,-3.2432,0,-3.2327,-3.2384,-3.2331,-3.2367,-3.2431,-3.2384,-3.2448,-3.2437,-3.2434,-3.2469,-3.2414,-3.2448,-3.2401,-3.2432,-3.2407,-3.247,-3.2475,-3.2466,-3.2459,-3.2472,-3.2474,-3.2483,-3.2473,-3.2438,-3.2437,-3.2436,-3.2435,0,-3.2496,-3.2463,-3.2522,-3.2503,-3.25,-3.2547,-3.2532,-3.2566,-3.2546,-3.2591,-3.2599,-3.2569,-3.2602,-3.2571,-3.2603,-3.2586,-3.2671,-3.2649,-3.2671,-3.2665,-3.2735,-3.273,-3.2962,-3.2991,-3.2768,-3.277,-3.2771,0,-3.2597,-3.2639,-3.2625,-3.2643,-3.2642,-3.2672,-3.2687,-3.2644,-3.2662,-3.2666,-3.2701,-3.2729,-3.275,-3.2808,-3.279,-3.2815,-3.2795,-3.2875,-3.2799,-3.2812,-3.2799,-3.2798,-3.2803,-3.2891,-3.2894,-3.2896,-3.2897,0,-3.2781,-3.2763,-3.2785,-3.2803,-3.2821,-3.2833,-3.2841,-3.286,-3.2816,-3.284,-3.2873,-3.2889,-3.2922,-3.2953,-3.2973,-3.297,-3.2929,-3.2922,-3.2939,-3.2953,-3.2965,-3.2962,-3.2715,-3.2917,-3.2915,-3.2913,-3.2912,-3.2911,-3.292,-3.2956,-3.2952,-3.2979,-3.2981,-3.299,-3.3022,-3.3006,-3.3032,-3.3055,-3.3028,-3.307,-3.3072,-3.3094,-3.3098,-3.3132,-3.3099,-3.3123,-3.313,-3.3137,-3.3148,-3.2958,-3.3135,-3.3135,-3.3134,-3.3133,-3.3133,0,-3.3103,-3.3097,-3.3123,-3.3136,-3.3159,-3.3115,-3.3122,-3.3145,-3.3182,-3.3186,-3.3208,-3.3248,-3.3278,-3.3263,-3.329,-3.3321,-3.3302,-3.3329,-3.3328,-3.3329,-3.3175,-3.3158,-3.3344,-3.3344,-3.3344,-3.3344,-3.3344,-3.3344,-3.3201,-3.326,-3.3242,-3.3302,-3.3297,-3.3336,-3.3344,-3.3354,-3.3358,-3.3404,-3.3428,-3.3418,-3.3416,-3.3443,-3.347,-3.3465,-3.3479,-3.3514,-3.3502,-3.336,-3.3339,-3.3319,-3.3303,-3.3516,-3.3517,-3.3653,-3.3654,-3.3655]},{"header":{"parameterUnit":"m.s-1","parameterCategory":1,"la1":30.2991,"la2":30.254,"lo1":-89.0895,"lo2":-89.0444,"dy":0.0017,"dx":0.0017,"nx":28,"ny":28,"refTime":"2025-08-08T21:00:00:Z","depth":0,"parameterNumber":3,"parameterNumberName":"V-component_of_WINDS"},"data":[0,0,0,0,0,0,0,0,0,0,0,0,0,0,0,0,0,0,0,0,0,0,0,0,0,0,0,0,0,0,0,0,0,0,0,0,0,0,0,0,0,0,0,0,0,0,0,0,0,0,0,0,0,0,0,0,0,0,-0.4582,-0.4581,0,-0.4534,-0.4533,-0.4533,-0.448,-0.4479,-0.4478,-0.4477,-0.4429,-0.4429,-0.4428,0,0,0,0,0,0,0,0,0,0,0,0,0,-0.463,-0.4629,-0.4582,-0.4581,-0.4581,-0.4534,-0.4533,-0.4533,-0.448,-0.4479,-0.4478,-0.4477,-0.4429,-0.4429,-0.4428,0,0,0,0,0,0,0,0,0,0,0,0,0,-0.4598,-0.4629,-0.4582,-0.4549,-0.4545,-0.4534,-0.4533,-0.4532,-0.448,-0.4479,-0.4478,-0.4476,-0.443,-0.4429,-0.4428,-0.4446,0,0,-0.4425,-0.4425,0,0,0,0,0,0,0,0,-0.46,-0.4596,-0.4554,-0.4551,-0.4547,-0.4511,-0.4532,-0.4503,-0.448,-0.4505,-0.4477,-0.4476,-0.4458,-0.4454,-0.4448,-0.4444,-0.4442,-0.4425,-0.4425,-0.4424,-0.4424,0,0,0,0,0,0,0,-0.4602,-0.4598,-0.4563,-0.4554,-0.4549,-0.4537,-0.4531,-0.4527,-0.4488,-0.4503,-0.4499,-0.4493,-0.4455,-0.4449,-0.4446,-0.4441,-0.4425,-0.4425,-0.4424,-0.4424,-0.4451,-0.4452,0,0,0,0,0,0,-0.4609,-0.46,-0.4564,-0.4561,-0.4571,-0.4537,-0.453,-0.4524,-0.4488,-0.4482,-0.4495,-0.4491,-0.4451,-0.4447,-0.4445,-0.4465,-0.4424,-0.4424,-0.4423,-0.4449,-0.4451,-0.4452,0,0,0,0,0,0,-0.461,-0.4607,-0.4566,-0.458,-0.4574,-0.4537,-0.4531,-0.4524,-0.4517,-0.4482,-0.4475,-0.4495,-0.445,-0.4446,-0.4446,-0.4462,-0.4423,-0.4423,-0.4448,-0.445,-0.4452,-0.4505,0,0,0,0,0,0,-0.4612,-0.4607,-0.4614,-0.458,-0.4573,-0.4569,-0.4532,-0.4524,-0.4516,-0.4511,-0.4481,-0.4474,-0.4449,-0.4448,-0.4445,-0.446,-0.4422,-0.4446,-0.4449,-0.4451,-0.4501,-0.4508,-0.4514,0,0,0,0,0,-0.4614,-0.463,-0.4614,-0.461,-0.458,-0.457,-0.4566,-0.4535,-0.4517,-0.4524,-0.4501,-0.4475,-0.446,-0.4448,-0.4445,-0.446,-0.4445,-0.4448,-0.4451,-0.4499,-0.4507,-0.4514,0,0,0,0,0,0,-0.4667,-0.4625,-0.4607,-0.4613,-0.4595,-0.4561,-0.4568,-0.4545,-0.4532,-0.4528,-0.4491,-0.4485,-0.449,-0.4475,-0.4462,-0.4476,-0.4449,-0.4452,-0.4487,-0.4494,-0.45,-0.4505,-0.4421,0,0,0,0,0,-0.4679,-0.4674,-0.4638,-0.4647,-0.4639,-0.4605,-0.4599,-0.4577,-0.4558,-0.455,-0.4527,-0.451,-0.4501,-0.4496,-0.4486,-0.4498,-0.4492,-0.4507,-0.4513,-0.4518,-0.4521,-0.4528,-0.4535,-0.4461,-0.4461,-0.4461,0,0,-0.4705,-0.4681,-0.468,-0.4657,-0.4641,-0.4637,-0.4599,-0.4596,-0.4593,-0.455,-0.4549,-0.4532,-0.451,-0.4517,-0.4518,-0.4504,-0.454,-0.4522,-0.4526,-0.4526,-0.4531,-0.4539,-0.4545,-0.4463,-0.4463,-0.4462,0,0,-0.475,-0.4731,-0.4737,-0.4721,-0.4697,-0.4674,-0.4676,-0.4645,-0.4632,-0.463,-0.4598,-0.4594,-0.4579,-0.4565,-0.4556,-0.4596,-0.4573,-0.4594,-0.4627,-0.4634,-0.464,-0.4645,-0.4661,-0.4667,-0.4596,-0.4596,-0.4596,0,-0.4785,-0.4777,-0.4743,-0.4743,-0.4734,-0.4693,-0.47,-0.4686,-0.466,-0.4655,-0.4639,-0.4621,-0.4603,-0.4606,-0.4616,-0.4609,-0.4611,-0.4598,-0.4641,-0.4646,-0.465,-0.4665,-0.4671,-0.4599,-0.4599,-0.4599,-0.4598,0,-0.4823,-0.4818,-0.4826,-0.4802,-0.4793,-0.4796,-0.4763,-0.4759,-0.4737,-0.4717,-0.4716,-0.4693,-0.4679,-0.4677,-0.4656,-0.4678,-0.467,-0.4648,-0.4621,-0.4661,-0.4674,-0.468,-0.4603,-0.4602,-0.4601,-0.4601,0,0,-0.4901,-0.4858,-0.4862,-0.4851,-0.4821,-0.4817,-0.4818,-0.4803,-0.4801,-0.4784,-0.4785,-0.4773,-0.4753,-0.4743,-0.472,-0.4725,-0.4761,-0.4703,-0.4702,-0.4716,-0.4785,-0.4804,-0.4811,-0.4744,-0.4745,-0.4745,-0.4788,0,-0.4943,-0.4943,-0.4912,-0.4921,-0.4917,-0.4878,-0.4879,-0.4861,-0.4842,-0.4836,-0.4814,-0.4808,-0.478,-0.4774,-0.4778,-0.4756,-0.4774,-0.4752,-0.4746,-0.4747,-0.4755,-0.4818,-0.4837,-0.4878,-0.4793,-0.4794,-0.4794,0,-0.4992,-0.4978,-0.4986,-0.4957,-0.4954,-0.4955,-0.494,-0.4934,-0.4913,-0.4899,-0.4887,-0.4861,-0.4861,-0.4833,-0.4833,-0.4819,-0.4814,-0.4803,-0.4804,-0.4804,-0.4775,-0.4822,-0.4891,-0.4898,-0.4802,-0.4801,-0.4801,0,-0.5051,-0.5034,-0.5037,-0.5029,-0.4994,-0.4996,-0.4982,-0.4959,-0.4953,-0.4939,-0.4934,-0.4921,-0.4914,-0.4904,-0.4875,-0.4857,-0.488,-0.4849,-0.4869,-0.487,-0.4877,-0.4878,-0.4949,-0.4871,-0.4871,-0.487,-0.487,0,-0.5102,-0.5109,-0.5063,-0.5066,-0.5073,-0.5037,-0.5045,-0.5027,-0.5008,-0.5006,-0.4971,-0.4971,-0.4931,-0.4927,-0.4903,-0.4908,-0.4905,-0.4894,-0.4888,-0.4899,-0.49,-0.4897,-0.4894,-0.4872,-0.4872,-0.4871,-0.4871,0,-0.517,-0.514,-0.5141,-0.5108,-0.5099,-0.5106,-0.5078,-0.5079,-0.5057,-0.5056,-0.5053,-0.5019,-0.5012,-0.4981,-0.4966,-0.4951,-0.4964,-0.4951,-0.4972,-0.4968,-0.4991,-0.499,-0.5064,-0.5073,-0.4987,-0.4988,-0.4989,0,-0.5206,-0.5211,-0.5178,-0.5174,-0.5161,-0.5156,-0.5149,-0.5114,-0.5108,-0.5085,-0.5089,-0.5078,-0.5069,-0.5059,-0.5033,-0.5022,-0.501,-0.5036,-0.5008,-0.5019,-0.5013,-0.5014,-0.5015,-0.5044,-0.5045,-0.5046,-0.5046,0,-0.5273,-0.5258,-0.5249,-0.5235,-0.5228,-0.5215,-0.5201,-0.52,-0.5161,-0.5156,-0.5148,-0.514,-0.5125,-0.5116,-0.5101,-0.5086,-0.5061,-0.5055,-0.5059,-0.5071,-0.5084,-0.508,-0.4991,-0.5054,-0.5053,-0.5053,-0.5052,-0.5052,-0.5328,-0.5331,-0.5309,-0.53,-0.5285,-0.5272,-0.5272,-0.525,-0.5243,-0.5228,-0.5207,-0.5202,-0.5181,-0.5158,-0.5145,-0.5141,-0.5127,-0.5133,-0.5135,-0.5137,-0.5143,-0.5082,-0.5138,-0.5138,-0.5138,-0.5137,-0.5137,0,-0.5396,-0.5379,-0.5372,-0.5352,-0.5346,-0.5321,-0.5303,-0.53,-0.5296,-0.5279,-0.527,-0.5261,-0.5252,-0.5225,-0.5213,-0.5216,-0.5204,-0.5214,-0.5215,-0.5212,-0.5156,-0.5154,-0.5224,-0.5224,-0.5224,-0.5224,-0.5224,-0.5224,-0.543,-0.5435,-0.5417,-0.5414,-0.5397,-0.5392,-0.5384,-0.5372,-0.5358,-0.535,-0.5343,-0.5325,-0.5304,-0.529,-0.5281,-0.5274,-0.5272,-0.5287,-0.5276,-0.5224,-0.5216,-0.5208,-0.5207,-0.5286,-0.5286,-0.5333,-0.5333,-0.5334]}]]